Regional Weather Roundup
Issued by NWS

Home | Current Version | Previous Version | Text Only | Print | Product List | Glossary Off
Versions: 1 2 3 4 5 6 7 8 9 10 11 12 13 14 15 16 17 18 19 20 21 22 23 24 25 26 27 28 29 30 31 32 33 34 35 36 37 38 39 40 41 42 43 44 45 46 47 48 49 50

000
ASUS43 KFSD 211302
RWRSD

WEATHER ROUNDUP FOR SOUTH DAKOTA
NATIONAL WEATHER SERVICE SIOUX FALLS SD
800 AM CDT TUE OCT 21 2014

NOTE: "FAIR" INDICATES FEW OR NO CLOUDS BELOW 12,000 FEET WITH NO
SIGNIFICANT WEATHER AND/OR OBSTRUCTIONS TO VISIBILITY.


SDZ001>005-009-010-012>017-211400-
NORTHWEST AND NORTH CENTRAL SOUTH DAKOTA

CITY           SKY/WX    TMP DP  RH WIND       PRES   REMARKS
FAITH            N/A     46  39  76 S18       29.79F
MOBRIDGE       CLEAR     53  41  63 SE14      29.82F
$$

SDZ012>016-024>037-041>051-057-063-072>074-211400-
SOUTHWEST AND SOUTH CENTRAL SOUTH DAKOTA

CITY           SKY/WX    TMP DP  RH WIND       PRES   REMARKS
RAPID CTY ARPT CLEAR     47  38  71 SE5       29.83F
PIERRE         CLEAR     51  41  68 SE15      29.86F
CUSTER         CLEAR     54  33  45 W6        29.97S
ELLSWORTH AFB  CLEAR     54  39  57 SW6       29.82F
PHILIP         CLEAR     56  43  61 VRB6      29.83F
PINE RIDGE     CLEAR     52  43  71 W6        29.91S
SPEARFISH      FAIR      57  37  47 CALM      29.84S
WINNER         FAIR      59  39  47 S18G28    29.92S
$$

SDZ004>011-016>023-039-040-211400-
NORTHEAST SOUTH DAKOTA

CITY           SKY/WX    TMP DP  RH WIND       PRES   REMARKS
ABERDEEN       CLEAR     50  38  63 SE12      29.95F
WATERTOWN      CLEAR     46  37  71 SE17      30.03F
SISSETON         N/A     37  36  96 S9        30.04F
$$

SDZ017-020-022-023-036>040-048>070-211400-
SOUTHEAST SOUTH DAKOTA

CITY           SKY/WX    TMP DP  RH WIND       PRES   REMARKS
SIOUX FALLS    CLEAR     45  37  73 SE6       30.07F
HURON          CLEAR     51  36  56 SE12      29.97F
CHAMBERLAIN    CLEAR     44  38  80 SE8       29.94S
MITCHELL       CLEAR     49  38  65 SE14      30.01S
YANKTON        CLEAR     39  36  87 E7        30.06S
$$

ABBREVIATIONS USED IN REMARKS
   TC - TEMPERATURE IN CELSIUS
  WCI - WIND CHILL INDEX
   HX - HEAT INDEX
  VSB - VISIBILITY




USA.gov is the U.S. government's official web portal to all federal, state and local government web resources and services.